Flag for Germany Weather past 2 weeks in Garbsen, Lower Saxony, Germany

Now
57 °F

Sprinkles. Broken clouds.


Feels Like: 53 °F
Forecast: 55 / 65 °F
Wind: 17 mph from West

Location: Hannover

Current Time: Jul 29, 2015 at 10:11:40 PM

Latest Report: Jul 29, 2015 at 9:50 PM


Visibility: N/A

Pressure: 29.74 "Hg

Humidity: 77%

Dew point: 50 °F

Location of GarbsenLocation

Historic Weather in Garbsen — Graph

°F

Garbsen temperature yesterday

Maximum temperature yesterday: 66 °F (at 1:20 PM)
Minimum temperature yesterday: 57 °F (at 4:20 AM)
Average temperature yesterday: 60 °F

Past Weeks' High & Low Weather Summary

 TemperatureHumidityPressure
High90 °F (Jul 17, 3:50 PM)100% (Jul 15, 12:20 AM)30.12 "Hg (Jul 15, 12:20 AM)
Low52 °F (Jul 26, 5:50 AM)33% (Jul 17, 3:50 PM)29.47 "Hg (Jul 25, 12:50 PM)
Average65 °F76%29.86 "Hg
* Reported Jul 14 8:20 PM — Jul 29 8:50 PM, Garbsen, Weather by CustomWeather, © 2015

Note: Actual official high and low records may vary slightly from our data, if they occured in-between our weather recording intervals... More about our weather records

Advertising

Garbsen weather history for previous 24 hours

 ConditionsComfort  
Time TempWeatherWind HumidityBarometerVisibility
8:50 PM
Wed, Jul 29
55 °FBroken clouds.17 mph82%29.71 "HgN/A
8:20 PM55 °FSprinkles. Broken clouds.14 mph88%29.71 "HgN/A
7:50 PM57 °FSprinkles. Broken clouds.12 mph82%29.71 "HgN/A
7:20 PM55 °FBroken clouds.12 mph88%29.71 "HgN/A
6:50 PM55 °FPartly sunny.23 mph82%29.71 "HgN/A
6:20 PM59 °FBroken clouds.16 mph72%29.71 "HgN/A
5:50 PM61 °FBroken clouds.13 mph72%29.68 "HgN/A
5:20 PM59 °FSprinkles. Partly sunny.16 mph68%29.71 "HgN/A
4:50 PM63 °FBroken clouds.17 mph59%29.68 "HgN/A
4:20 PM61 °FBroken clouds.14 mph59%29.68 "HgN/A
3:50 PM59 °FPartly sunny.17 mph68%29.68 "HgN/A
3:20 PM57 °FBroken clouds.14 mph77%29.68 "HgN/A
2:50 PM55 °FBroken clouds.21 mph77%29.68 "HgN/A
2:20 PM61 °FScattered clouds.12 mph68%29.68 "HgN/A
1:50 PM61 °FScattered clouds.13 mph68%29.68 "HgN/A
1:20 PM55 °FScattered showers. Scattered clouds.9 mph82%29.68 "HgN/A
12:50 PM61 °FThundershowers. Broken clouds.16 mph63%29.68 "HgN/A
12:20 PM63 °FScattered clouds.16 mph59%29.68 "HgN/A
11:50 AM63 °FScattered clouds.17 mph59%29.68 "HgN/A
11:20 AM63 °FScattered clouds.17 mph64%29.68 "HgN/A
10:50 AM59 °FBroken clouds.15 mph72%29.68 "HgN/A
10:20 AM59 °FScattered clouds.15 mph72%29.68 "HgN/A
9:50 AM59 °FScattered clouds.12 mph72%29.68 "HgN/A
9:20 AM59 °FScattered clouds.16 mph72%29.68 "HgN/A
8:50 AM57 °FScattered clouds.16 mph77%29.68 "HgN/A
8:20 AM57 °FScattered clouds.13 mph77%29.68 "HgN/A
7:50 AM55 °FScattered clouds.14 mph77%29.68 "HgN/A
7:20 AM55 °FScattered clouds.13 mph77%29.68 "HgN/A
6:50 AM54 °FScattered clouds.12 mph82%29.68 "HgN/A
6:20 AM54 °FPassing clouds.14 mph77%29.68 "HgN/A
5:50 AM55 °FClear.12 mph77%29.68 "Hg10 mi
5:20 AM55 °FPassing clouds.10 mph77%29.68 "HgN/A
4:50 AM55 °FClear.9 mph77%29.68 "Hg10 mi
4:20 AM55 °FPassing clouds.9 mph77%29.68 "HgN/A
3:50 AM55 °FPassing clouds.10 mph72%29.68 "HgN/A
3:20 AM59 °FPassing clouds.13 mph68%29.68 "HgN/A
2:50 AM59 °FClear.12 mph68%29.68 "Hg10 mi
2:20 AM59 °FPassing clouds.9 mph68%29.68 "HgN/A
1:50 AM59 °FPassing clouds.14 mph68%29.68 "HgN/A
1:20 AM59 °FPassing clouds.10 mph72%29.68 "HgN/A
12:50 AM59 °FLight rain. Passing clouds.8 mph72%29.68 "HgN/A
11:20 PM
Tue, Jul 28
59 °FPassing clouds.9 mph72%29.68 "HgN/A
10:50 PM57 °FPassing clouds.7 mph77%29.68 "HgN/A
10:20 PM59 °FPassing clouds.8 mph72%29.68 "HgN/A
Weather by CustomWeather, © 2015

See weather overviewHow to use our weather pages